FW7106 Weather Reports


time (UTC)temp
C
wind
direction
speed
KPH
gust
KPH
rain 1hr
cm
rain 24hr
cm
rain mn
cm
humidity
%
barometer
mb
20260505181442 27 222 4.8 8.0 0.00 0.00 0.00 83 1007.4
20260505180939 27 197 4.8 4.8 0.00 0.00 0.00 83 1007.3
20260505180435 27 211 8.0 11.3 0.00 0.00 0.00 83 1007.4
20260505175932 27 211 12.9 16.1 0.00 0.00 0.00 83 1007.2
20260505175428 27 193 1.6 3.2 0.00 0.00 0.00 82 1007.2
20260505174924 27 254 8.0 12.9 0.00 0.00 0.00 83 1007.2
20260505174422 27 231 4.8 4.8 0.00 0.00 0.00 84 1007.4
20260505173918 26 203 9.7 12.9 0.00 0.00 0.00 85 1007.4
20260505173414 26 214 4.8 4.8 0.00 0.00 0.00 86 1007.5
20260505172911 26 202 11.3 16.1 0.00 0.00 0.00 84 1007.5
20260505172409 26 224 4.8 9.7 0.00 0.00 0.00 85 1007.4
20260505171909 26 179 9.7 14.5 0.00 0.00 0.00 85 1007.4
20260505171406 26 214 9.7 11.3 0.00 0.00 0.00 85 1007.6
20260505170902 26 220 8.0 11.3 0.00 0.00 0.00 86 1007.6
20260505170359 26 214 14.5 16.1 0.00 0.00 0.00 85 1007.6
20260505165855 26 191 4.8 4.8 0.00 0.00 0.00 85 1007.9
20260505165350 26 219 6.4 8.0 0.00 0.00 0.00 85 1007.6
20260505164846 26 189 4.8 4.8 0.00 0.00 0.00 87 1007.8
20260505164343 26 220 14.5 17.7 0.00 0.00 0.00 85 1007.6
20260505163841 26 215 4.8 8.0 0.00 0.00 0.00 86 1007.7
20260505163340 26 188 9.7 16.1 0.00 0.00 0.00 86 1007.8
20260505162838 26 228 4.8 8.0 0.00 0.00 0.00 86 1007.6
20260505162334 26 239 11.3 14.5 0.00 0.00 0.00 85 1007.7
20260505161831 26 99 8.0 9.7 0.00 0.00 0.00 86 1007.6
20260505161328 26 199 3.2 4.8 0.00 0.00 0.00 88 1007.8
20260505160825 25 218 4.8 8.0 0.00 0.00 0.00 89 1007.7
20260505160323 25 198 8.0 11.3 0.00 0.00 0.00 88 1007.8
20260505153302 25 211 12.9 17.7 0.00 0.00 0.00 90 1007.6
20260505152759 24 231 4.8 4.8 0.00 0.00 0.00 91 1007.7
20260505152255 24 148 8.0 11.3 0.00 0.00 0.00 91 1007.7
20260505151750 24 188 4.8 8.0 0.00 0.00 0.00 92 1007.9
20260505151248 23 211 4.8 4.8 0.00 0.00 0.00 92 1007.8
20260505150744 23 217 11.3 16.1 0.00 0.00 0.00 92 1008.0
20260505150241 23 189 8.0 9.7 0.00 0.00 0.00 92 1007.9
20260505140206 22 224 1.6 3.2 0.00 0.00 0.00 93 1007.8
20260505130130 22 199 1.6 3.2 0.00 0.00 0.00 93 1007.1
20260505124619 22 183 4.8 4.8 0.00 0.00 0.00 93 1007.4
20260505124115 22 229 3.2 3.2 0.00 0.00 0.00 93 1007.3
20260505123612 22 170 4.8 4.8 0.00 0.00 0.00 93 1007.5
20260505123108 22 196 1.6 3.2 0.00 0.00 0.00 93 1007.1
20260505122605 22 188 1.6 1.6 0.00 0.00 0.00 93 1007.3
20260505122102 22 210 3.2 3.2 0.00 0.00 0.00 93 1007.2
20260505121559 22 207 4.8 4.8 0.00 0.00 0.00 94 1007.1
20260505121056 22 213 4.8 4.8 0.00 0.00 0.00 94 1007.2
20260505120552 21 183 1.6 1.6 0.00 0.00 0.00 94 1006.9
20260505120048 21 206 0.0 1.6 0.00 0.00 0.00 94 1006.9
20260505115542 21 193 4.8 4.8 0.00 0.00 0.00 94 1007.2
20260505115040 21 200 1.6 1.6 0.00 0.00 0.00 94 1007.2
20260505114537 21 208 1.6 1.6 0.00 0.00 0.00 94 1007.2
20260505114033 21 246 3.2 3.2 0.00 0.00 0.00 94 1007.1
20260505113530 21 197 1.6 3.2 0.00 0.00 0.00 94 1007.3
20260505113026 21 198 1.6 1.6 0.00 0.00 0.00 93 1007.2
20260505112522 21 184 3.2 3.2 0.00 0.00 0.00 93 1006.9
20260505112015 21 202 3.2 4.8 0.00 0.00 0.00 93 1006.9
20260505111508 21 187 0.0 0.0 0.00 0.00 0.00 94 1007.1
20260505111004 21 225 4.8 8.0 0.00 0.00 0.00 94 1007.1
20260505110501 21 208 1.6 3.2 0.00 0.00 0.00 94 1006.9
20260505101933 21 219 1.6 1.6 0.00 0.00 0.00 93 1007.2
20260505101432 21 202 3.2 3.2 0.00 0.00 0.00 93 1006.8
20260505100928 21 168 1.6 3.2 0.00 0.00 0.00 93 1006.9
20260505100425 21 158 4.8 4.8 0.00 0.00 0.00 93 1006.9
20260505095921 21 191 1.6 1.6 0.00 0.00 0.00 93 1006.9
20260505095418 21 187 3.2 3.2 0.00 0.00 0.00 93 1007.2
20260505094914 21 202 1.6 3.2 0.00 0.00 0.00 93 1007.4
20260505094412 21 186 3.2 4.8 0.00 0.00 0.00 93 1007.3
20260505093907 21 182 8.0 9.7 0.00 0.00 0.00 93 1007.1
20260505093404 21 190 1.6 3.2 0.00 0.00 0.00 93 1007.2
20260505092902 21 187 3.2 4.8 0.00 0.00 0.00 93 1007.0
20260505092400 21 203 1.6 1.6 0.00 0.00 0.00 93 1007.2
20260505091857 21 155 4.8 8.0 0.00 0.00 0.00 93 1007.2
20260505091355 21 191 1.6 3.2 0.00 0.00 0.00 93 1007.5
20260505090852 21 221 4.8 4.8 0.00 0.00 0.00 93 1007.6
20260505090350 21 179 4.8 8.0 0.00 0.00 0.00 93 1007.4
20260505085847 21 183 1.6 3.2 0.00 0.00 0.00 93 1007.3
20260505085345 21 192 0.0 0.0 0.00 0.00 0.00 93 1007.2
20260505084843 21 195 4.8 8.0 0.00 0.00 0.00 93 1007.1
20260505084341 21 195 4.8 4.8 0.00 0.00 0.00 93 1007.4
20260505083838 21 197 4.8 4.8 0.00 0.00 0.00 93 1007.5
20260505083336 21 108 3.2 8.0 0.00 0.00 0.00 93 1007.5
20260505082832 21 215 1.6 1.6 0.00 0.00 0.00 93 1007.7
20260505082328 21 203 3.2 4.8 0.00 0.00 0.00 93 1007.8
20260505081825 21 199 6.4 11.3 0.00 0.00 0.00 93 1007.7
20260505081322 21 206 4.8 8.0 0.00 0.00 0.00 93 1008.0
20260505080818 21 178 3.2 3.2 0.00 0.00 0.00 93 1007.9
20260505080314 21 142 3.2 3.2 0.00 0.00 0.00 93 1007.8
20260505075810 21 199 3.2 3.2 0.00 0.00 0.00 92 1007.7
20260505075307 21 183 6.4 8.0 0.00 0.00 0.00 93 1008.0
20260505074804 21 127 1.6 3.2 0.00 0.00 0.00 92 1008.0
20260505074301 21 234 3.2 3.2 0.00 0.00 0.00 92 1008.1
20260505073759 21 193 3.2 3.2 0.00 0.00 0.00 92 1008.2
20260505073257 21 176 3.2 3.2 0.00 0.00 0.00 92 1008.1
20260505072753 21 196 1.6 1.6 0.00 0.00 0.00 92 1008.5
20260505072249 21 186 1.6 1.6 0.00 0.00 0.00 92 1008.3
20260505071745 21 109 4.8 4.8 0.00 0.00 0.00 92 1008.3
20260505071242 21 204 3.2 3.2 0.00 0.00 0.00 92 1008.4
20260505070740 21 174 0.0 1.6 0.00 0.00 0.00 92 1008.6
20260505070236 21 196 8.0 9.7 0.00 0.00 0.00 92 1008.4
20260505065731 21 210 0.0 0.0 0.00 0.00 0.00 92 1008.5
20260505065229 21 151 3.2 3.2 0.00 0.00 0.00 92 1008.8
20260505064725 21 204 4.8 4.8 0.00 0.00 0.00 92 1008.7
20260505064223 21 129 3.2 3.2 0.00 0.00 0.00 92 1008.7
20260505063720 21 201 4.8 8.0 0.00 0.00 0.00 92 1008.7
20260505063217 21 164 3.2 8.0 0.00 0.00 0.00 92 1008.6
20260505062713 21 185 4.8 4.8 0.00 0.00 0.00 91 1008.4
20260505062211 21 151 4.8 8.0 0.00 0.00 0.00 91 1008.7
20260505061708 21 188 3.2 4.8 0.00 0.00 0.00 91 1008.8
20260505061206 21 190 1.6 3.2 0.00 0.00 0.00 91 1008.6
20260505060703 21 187 3.2 3.2 0.00 0.00 0.00 91 1008.7
20260505060200 21 110 4.8 8.0 0.00 0.00 0.00 91 1008.7
20260505055655 21 106 4.8 4.8 0.00 0.00 0.00 91 1008.6
20260505055151 21 185 1.6 1.6 0.00 0.00 0.00 91 1008.6
20260505054649 21 150 3.2 3.2 0.00 0.00 0.00 91 1008.6
20260505054147 21 158 1.6 3.2 0.00 0.00 0.00 91 1008.6
20260505053644 21 130 4.8 4.8 0.00 0.00 0.00 91 1008.7
20260505053140 21 59 4.8 8.0 0.00 0.00 0.00 90 1008.6
20260505052638 21 127 6.4 12.9 0.00 0.00 0.00 90 1008.9
20260505052135 21 174 1.6 3.2 0.00 0.00 0.00 90 1008.7
20260505051632 21 196 4.8 8.0 0.00 0.00 0.00 90 1009.0
20260505051130 21 213 6.4 9.7 0.00 0.00 0.00 90 1008.6
20260505050627 21 182 3.2 4.8 0.00 0.00 0.00 90 1008.9
20260505050126 21 116 4.8 9.7 0.00 0.00 0.00 89 1008.7
20260505041555 21 164 3.2 3.2 0.00 0.00 0.00 88 1009.3
20260505041053 21 175 6.4 8.0 0.00 0.00 0.00 88 1009.3
20260505040550 21 180 4.8 8.0 0.00 0.00 0.00 88 1009.1
20260505040047 21 190 3.2 3.2 0.00 0.00 0.00 88 1009.0
20260505035543 21 184 1.6 1.6 0.00 0.00 0.00 88 1009.1
20260505035040 21 183 1.6 3.2 0.00 0.00 0.00 88 1009.1
20260505034536 21 172 3.2 4.8 0.00 0.00 0.00 87 1009.1
20260505034033 21 183 3.2 3.2 0.00 0.00 0.00 87 1009.0
20260505033530 22 194 3.2 3.2 0.00 0.00 0.00 87 1009.0
20260505033028 22 218 1.6 3.2 0.00 0.00 0.00 87 1008.9
20260505032526 22 92 4.8 4.8 0.00 0.00 0.00 87 1009.0
20260505032022 22 202 4.8 4.8 0.00 0.00 0.00 87 1009.1
20260505031520 22 152 3.2 8.0 0.00 0.00 0.00 86 1008.9
20260505031016 22 169 3.2 3.2 0.00 0.00 0.00 86 1009.1
20260505030513 22 95 11.3 11.3 0.00 0.00 0.00 86 1009.1
20260505030009 22 206 4.8 9.7 0.00 0.00 0.00 86 1008.9
20260505025504 22 135 8.0 11.3 0.00 0.00 0.00 86 1009.0
20260505025004 22 192 12.9 20.9 0.00 0.00 0.00 86 1008.8
20260505024500 22 166 8.0 12.9 0.00 0.00 0.00 86 1008.9
20260505023957 22 204 4.8 8.0 0.00 0.00 0.00 86 1008.7
20260505023454 22 170 4.8 4.8 0.00 0.00 0.00 85 1008.7
20260505022952 22 141 4.8 4.8 0.00 0.00 0.00 85 1008.8
20260505022449 22 167 0.0 0.0 0.00 0.00 0.00 85 1008.7
20260505021946 22 130 4.8 4.8 0.00 0.00 0.00 85 1008.5
20260505021443 22 116 4.8 4.8 0.00 0.00 0.00 85 1008.6
20260505020938 22 97 1.6 1.6 0.00 0.00 0.00 85 1008.5
20260505020434 22 179 3.2 4.8 0.00 0.00 0.00 84 1008.6
20260505015931 22 100 6.4 9.7 0.00 0.00 0.00 84 1008.4
20260505015428 22 153 4.8 8.0 0.00 0.00 0.00 84 1008.5
20260505014926 22 189 8.0 11.3 0.00 0.00 0.00 84 1008.5
20260505014422 23 100 8.0 12.9 0.00 0.00 0.00 84 1008.3
20260505013919 23 157 1.6 3.2 0.00 0.00 0.00 84 1008.4
20260505013416 23 190 1.6 3.2 0.00 0.00 0.00 84 1008.4
20260505012914 23 156 1.6 3.2 0.00 0.00 0.00 84 1008.1
20260505012412 23 114 1.6 8.0 0.00 0.00 0.00 83 1008.1
20260505011908 23 109 4.8 4.8 0.00 0.00 0.00 83 1008.3
20260505011404 23 185 0.0 1.6 0.00 0.00 0.00 83 1008.2
20260505010901 23 140 0.0 1.6 0.00 0.00 0.00 82 1008.1
20260505010357 23 176 0.0 1.6 0.00 0.00 0.00 82 1007.8
20260505005853 23 134 4.8 4.8 0.00 0.00 0.00 82 1008.1
20260505005350 23 127 4.8 4.8 0.00 0.00 0.00 81 1008.1
20260505004848 24 105 6.4 9.7 0.00 0.00 0.00 81 1007.9
20260505004343 24 136 6.4 8.0 0.00 0.00 0.00 80 1008.0
20260505003841 24 131 3.2 3.2 0.00 0.00 0.00 80 1007.9
20260505003338 25 156 1.6 3.2 0.00 0.00 0.00 79 1007.8
20260505002834 25 134 8.0 12.9 0.00 0.00 0.00 79 1007.7
20260505002331 25 100 8.0 12.9 0.00 0.00 0.00 78 1008.0
20260505001829 25 148 6.4 9.7 0.00 0.00 0.00 78 1008.1
20260505001326 25 120 6.4 9.7 0.00 0.00 0.00 77 1008.2
20260505000823 25 126 3.2 3.2 0.00 0.00 0.00 77 1008.1
20260505000321 25 105 4.8 4.8 0.00 0.00 0.00 77 1008.3
20260504235818 25 135 4.8 8.0 0.00 0.00 0.00 77 1008.2
20260504235314 25 145 12.9 14.5 0.00 0.00 0.00 76 1008.2
20260504234811 25 112 4.8 8.0 0.00 0.00 0.00 77 1008.1
20260504234309 25 124 12.9 16.1 0.00 0.00 0.00 76 1008.2
20260504233805 25 157 6.4 8.0 0.00 0.00 0.00 77 1008.4
20260504233301 26 179 3.2 4.8 0.00 0.00 0.00 76 1008.4
20260504232758 26 145 4.8 9.7 0.00 0.00 0.00 76 1008.3
20260504232255 26 165 4.8 4.8 0.00 0.00 0.00 75 1008.2
20260504231752 26 190 3.2 4.8 0.00 0.00 0.00 74 1008.4
20260504231248 26 126 1.6 3.2 0.00 0.00 0.00 75 1008.4
20260504230744 26 114 12.9 16.1 0.00 0.00 0.00 73 1008.5
20260504230243 26 180 11.3 20.9 0.00 0.00 0.00 73 1008.5
20260504225741 26 105 4.8 8.0 0.00 0.00 0.00 74 1008.4
20260504225237 26 206 3.2 4.8 0.00 0.00 0.00 73 1008.4
20260504224734 26 161 3.2 3.2 0.00 0.00 0.00 72 1008.5
20260504224231 27 214 4.8 4.8 0.00 0.00 0.00 70 1008.8
20260504223728 26 150 11.3 14.5 0.00 0.00 0.00 69 1008.8
20260504223223 26 134 6.4 9.7 0.00 0.00 0.00 71 1008.6
20260504222721 26 134 11.3 17.7 0.00 0.00 0.00 70 1008.8
20260504222217 27 179 3.2 4.8 0.00 0.00 0.00 69 1008.8
20260504221715 27 102 8.0 14.5 0.00 0.00 0.00 69 1008.8
20260504221212 27 134 4.8 11.3 0.00 0.00 0.00 68 1008.7
20260504220708 27 121 9.7 12.9 0.00 0.00 0.00 68 1008.7
20260504220206 27 135 3.2 3.2 0.00 0.00 0.00 68 1009.0
20260504215702 27 147 3.2 3.2 0.00 0.00 0.00 68 1008.6
20260504215159 27 121 6.4 8.0 0.00 0.00 0.00 68 1008.7
20260504214655 28 167 4.8 9.7 0.00 0.00 0.00 66 1008.9
20260504214152 27 190 4.8 4.8 0.00 0.00 0.00 66 1009.1
20260504213648 27 193 8.0 12.9 0.00 0.00 0.00 67 1009.4
20260504213145 28 165 4.8 4.8 0.00 0.00 0.00 65 1009.3
20260504212642 27 222 4.8 8.0 0.00 0.00 0.00 69 1009.6
20260504212138 28 177 1.6 1.6 0.00 0.00 0.00 68 1009.6
20260504211636 27 159 3.2 4.8 0.00 0.00 0.00 69 1009.7
20260504211132 27 187 1.6 3.2 0.00 0.00 0.00 70 1009.8
20260504210630 27 118 9.7 14.5 0.00 0.00 0.00 68 1009.8
20260504210126 27 68 6.4 9.7 0.00 0.00 0.00 66 1010.0
20260504205624 27 179 3.2 3.2 0.00 0.00 0.00 66 1010.1
20260504205121 27 173 1.6 3.2 0.00 0.00 0.00 67 1010.1
20260504204620 27 194 1.6 1.6 0.00 0.00 0.00 67 1010.2
20260504204118 27 105 1.6 3.2 0.00 0.00 0.00 67 1010.4
20260504203617 27 101 3.2 3.2 0.00 0.00 0.00 66 1010.4
20260504203114 27 203 4.8 8.0 0.00 0.00 0.00 67 1010.4
20260504202608 27 179 1.6 3.2 0.00 0.00 0.00 65 1010.3
20260504202106 27 126 8.0 11.3 0.00 0.00 0.00 65 1010.4
20260504201602 27 165 8.0 11.3 0.00 0.00 0.00 65 1010.6
20260504201100 27 181 8.0 11.3 0.00 0.00 0.00 65 1010.8
20260504200556 27 183 8.0 12.9 0.00 0.00 0.00 65 1010.7
20260504200053 28 194 4.8 4.8 0.00 0.00 0.00 66 1010.8
20260504195549 28 120 6.4 9.7 0.00 0.00 0.00 64 1010.9
20260504195046 28 215 1.6 1.6 0.00 0.00 0.00 63 1011.0
20260504194543 28 55 1.6 3.2 0.00 0.00 0.00 62 1011.2
20260504194038 27 147 3.2 3.2 0.00 0.00 0.00 66 1011.2
20260504193535 26 184 4.8 8.0 0.00 0.00 0.00 67 1011.4
20260504193034 27 191 4.8 8.0 0.00 0.00 0.00 67 1011.5
20260504192532 27 182 11.3 14.5 0.00 0.00 0.00 65 1011.3
20260504192029 27 195 3.2 3.2 0.00 0.00 0.00 66 1011.6
20260504191527 27 93 3.2 3.2 0.00 0.00 0.00 66 1011.5
20260504191023 27 206 8.0 9.7 0.00 0.00 0.00 66 1011.6
20260504190519 27 197 8.0 14.5 0.00 0.00 0.00 67 1011.7
20260504190015 27 116 0.0 1.6 0.00 0.00 0.00 66 1011.8
20260504185513 27 185 4.8 4.8 0.00 0.00 0.00 66 1012.2
20260504185009 27 225 1.6 1.6 0.00 0.00 0.00 67 1012.0
20260504184504 26 207 14.5 20.9 0.00 0.00 0.00 68 1012.1
20260504184000 26 176 3.2 4.8 0.00 0.00 0.00 69 1012.2
20260504183457 25 237 3.2 4.8 0.00 0.00 0.00 71 1012.2
20260504182955 26 233 12.9 14.5 0.00 0.00 0.00 68 1012.1
20260504182452 26 177 3.2 4.8 0.00 0.00 0.00 67 1012.6
20260504181949 26 213 8.0 9.7 0.00 0.00 0.00 69 1012.4